Weather History for Caslav, Czech Republic

Change the Weather History Date:

Thursday, March 29, 2012

  Actual Average Record
Temperature  
Mean Temperature 48 °F -  
Max Temperature 53 °F - - ()
Min Temperature 44 °F - - ()
Degree Days  
Heating Degree Days 16    
Moisture  
Dew Point 36 °F    
Average Humidity 63    
Maximum Humidity 87    
Minimum Humidity 50    
Precipitation  
Precipitation 0.00 in - - ()
Sea Level Pressure  
Sea Level Pressure 29.93 in    
Wind  
Wind Speed 14 mph ()    
Max Wind Speed 22 mph    
Max Gust Speed 30 mph    
Visibility 6.2 miles    
Events Rain    
T = Trace of Precipitation, MM = Missing Value Source: Averaged Metar Reports

Daily Weather History Graph

Daily Weather History Graph

Search for Another Location

Airport:

Trip Planner

Search our weather history database for the weather conditions in past years. The results will help you decide how hot, cold, wet, or windy it might be!

Date:

Astronomy

Mar. 29, 2012 Rise Set
Actual Time 6:41 AM CEST 7:26 PM CEST
Civil Twilight 6:08 AM CEST 7:58 PM CEST
Nautical Twilight 5:29 AM CEST 8:37 PM CEST
Astronomical Twilight 4:48 AM CEST 9:19 PM CEST
Moon 10:03 AM CEST (3/29) 1:33 AM CEST (3/29)
Length of Visible Light 13h 50m
Length of Day
12h 44m
Waxing Crescent, 37% of the Moon is Illuminated
Mar 29
Waxing Crescent
Mar 30
First Quarter
Apr 6
Full
Apr 13
Last Quarter
Apr 21
New

Hourly Weather History & Observations

Time (CEST) Temp. Windchill Dew Point Humidity Pressure Visibility Wind Dir Wind Speed Gust Speed Precip Events Conditions
12:02 AM 53.6 °F - 35.6 °F 51% 30.06 in - West 15.0 mph - N/A   Clear
1:00 AM 51.8 °F - 33.8 °F 50% 30.06 in - West 10.4 mph - N/A   Clear
2:00 AM 50.0 °F - 33.8 °F 54% 30.04 in - West 11.5 mph - N/A   Clear
3:00 AM 51.8 °F - 33.8 °F 50% 30.01 in - West 13.8 mph - N/A   Clear
4:00 AM 51.8 °F - 35.6 °F 54% 29.98 in - West 13.8 mph - N/A   Clear
5:00 AM 53.6 °F - 35.6 °F 51% 29.95 in - West 17.3 mph - N/A   Clear
6:00 AM 53.6 °F - 35.6 °F 51% 29.95 in - West 21.9 mph - N/A   Clear
7:00 AM 51.8 °F - 35.6 °F 54% 29.98 in - NW 13.8 mph - N/A   Clear
8:00 AM 50.0 °F - 33.8 °F 54% 29.98 in - NW 20.7 mph - N/A   Clear
9:00 AM 48.2 °F - 33.8 °F 58% 29.98 in - NW 16.1 mph - N/A   Clear
10:00 AM 50.0 °F - 35.6 °F 58% 29.95 in - WNW 16.1 mph - N/A   Clear
11:00 AM 50.0 °F - 33.8 °F 54% 29.95 in 6.2 mi WNW 15.0 mph - N/A   Mostly Cloudy
12:00 PM 51.8 °F - 35.6 °F 54% 29.95 in 6.2 mi WNW 18.4 mph - N/A   Overcast
1:00 PM 50.0 °F - 32.0 °F 50% 29.95 in 6.2 mi NW 19.6 mph - N/A   Overcast
2:00 PM 50.0 °F - 33.8 °F 54% 29.92 in 6.2 mi WNW 20.7 mph 29.9 mph N/A   Overcast
3:00 PM 50.0 °F - 32.0 °F 50% 29.92 in 6.2 mi WNW 19.6 mph - N/A   Overcast
4:00 PM 44.6 °F 36.6 °F 39.2 °F 81% 29.89 in 6.2 mi WNW 19.6 mph - N/A Rain Light Rain
5:00 PM 44.6 °F 37.8 °F 41.0 °F 87% 29.89 in 6.2 mi WNW 15.0 mph - N/A Rain Rain
6:00 PM 44.6 °F 36.4 °F 39.2 °F 81% 29.89 in 6.2 mi WNW 20.7 mph - N/A Rain Rain
6:09 PM 44.6 °F 37.2 °F 39.2 °F 81% 29.86 in 6.2 mi WNW 17.3 mph - N/A   Mostly Cloudy
7:00 PM 44.6 °F 38.1 °F 39.2 °F 81% 29.86 in 6.2 mi West 13.8 mph - N/A   Overcast
8:00 PM 44.6 °F 38.1 °F 39.2 °F 81% 29.83 in 6.2 mi West 13.8 mph - N/A Rain Light Rain
9:00 PM 44.6 °F 37.8 °F 39.2 °F 81% 29.83 in 6.2 mi WNW 15.0 mph - N/A Rain Light Rain
10:00 PM 44.6 °F 36.4 °F 39.2 °F 81% 29.83 in 6.2 mi WNW 20.7 mph - N/A   Mostly Cloudy
11:00 PM 44.6 °F 36.4 °F 39.2 °F 81% 29.80 in 6.2 mi West 20.7 mph - N/A   Mostly Cloudy